Weather observations for the past three days for
Laconia, Laconia Municipal Airport
Imperial (Metric)
Date Time (edt) Wind (mph) Vis. (mi.) Weather Sky Cond. Temperature (ºF) Relative Humidity Wind Chill (°F) Heat Index (°F) Pressure Precipitation (in)
Air Dwpt 6 hour altimeter (in) sea level (mb) 1 hr 3 hr 6 hr
Max. Min.
27 04:56 E 9 6.00 Fog/Mist OVC007 55.9 55.9 100% 30.04 1017.1 0.01 0.02
27 03:56 NE 8 10.00 Overcast OVC009 57 55.9 96% 30.04 1016.9
27 02:56 E 10 10.00 Overcast BKN013 OVC018 57 55.9 96% 30.04 1016.9 0.01
27 01:56 E 12 9.00 Light Rain BKN027 OVC039 60.1 55 71.1 60.1 84% 30.03 1017.0 0.01 0.01
27 00:56 NE 12 10.00 Overcast BKN050 OVC065 61 55 81% 30.04 1016.9
26 23:56 NE 9 10.00 Overcast BKN055 OVC070 62.1 55.9 80% 30.04 1016.9
26 22:56 NE 9 10.00 Overcast BKN060 OVC075 64.9 55.9 73% 30.03 1016.6
26 21:56 Vrbl 6 10.00 Mostly Cloudy FEW050 SCT070 BKN110 66.9 57.9 73% 30.02 1016.3
26 20:56 Vrbl 3 10.00 Fair CLR 69.1 55 61% 29.99 1015.3
26 19:56 Vrbl 5 10.00 Fair CLR 71.1 59 80.1 71.1 66% 29.96 1014.3
26 18:56 E 15 10.00 Fair CLR 78.1 60.1 54% 79 29.93 1013.6
26 17:56 S 3 10.00 Fair CLR 79 57 47% 80 29.94 1013.7
26 16:56 S 7 10.00 Mostly Cloudy BKN055 80.1 57.9 47% 81 29.93 1013.4
26 15:56 Vrbl 3 10.00 Partly Cloudy SCT055 79 57.9 49% 80 29.92 1013.0
26 14:56 SE 9 10.00 Mostly Cloudy BKN050 79 57.9 49% 80 29.93 1013.3
26 13:56 Vrbl 6 10.00 Partly Cloudy SCT050 79 55.9 79 63 45% 80 29.93 1013.4
26 12:56 NE 7 10.00 Partly Cloudy SCT050 75 54 48% 78 29.95 1013.8
26 11:56 NE 6 10.00 Partly Cloudy SCT085 73 55 53% 29.95 1013.9
26 10:56 NE 7 10.00 Mostly Cloudy BKN085 70 54 57% 29.95 1014.1
26 09:56 N 5 10.00 Mostly Cloudy BKN075 69.1 53.1 57% 29.94 1013.8
26 08:56 N 9 10.00 Partly Cloudy SCT050 66 53.1 63% 29.94 1013.6
26 07:56 NE 6 10.00 Partly Cloudy SCT120 63 57 64 57.9 81% 29.94 1013.6 0.01
26 06:56 NE 5 10.00 Fair CLR 62.1 59 90% 29.92 1012.9
26 05:56 Calm 10.00 Mostly Cloudy SCT050 BKN095 60.1 59 96% 29.91 1012.7
26 04:56 Calm 9.00 Overcast OVC060 59 59 100% 29.89 1012.1 0.01
26 03:56 NW 3 10.00 Light Rain OVC055 60.1 60.1 100% 29.88 1011.7 0.01
26 02:56 Calm 10.00 Light Rain BKN060 BKN075 OVC090 60.1 57 90% 29.88 1011.7
26 01:56 Calm 10.00 Overcast SCT075 OVC100 61 54 69.1 60.1 78% 29.87 1011.2
26 00:56 W 3 10.00 Overcast OVC100 62.1 54 75% 29.87 1011.5
25 23:56 Calm 10.00 Overcast OVC100 62.1 52 70% 29.87 1011.5
25 22:56 Calm 10.00 Overcast OVC110 62.1 52 70% 29.86 1010.9
25 21:56 Calm 10.00 Overcast OVC110 63 52 68% 29.86 1011.0
25 20:56 Calm 6.00 Partly Cloudy with Haze SCT110 63 53.1 70% 29.85 1010.8
25 19:56 Calm 1.50 Fair with Haze CLR 69.1 53.1 77 69.1 57% 29.84 1010.3
25 18:56 Calm 10.00 Fair CLR 73 45 37% 29.84 1010.4
25 17:56 W 7 10.00 Fair CLR 75.9 43 31% 77 29.83 1010.1
25 16:56 Vrbl 6 10.00 Fair CLR 75 42.1 31% 77 29.83 1009.9
25 15:56 W 9 10.00 Fair CLR 75.9 42.1 30% 77 29.83 1010.1
25 14:56 SW 10 G 16 10.00 Fair CLR 73.9 43 33% 29.83 1010.1
25 13:56 Vrbl 6 10.00 Fair CLR 71.1 43 72 57.9 36% 29.84 1010.4
25 12:56 Vrbl 5 10.00 Fair CLR 71.1 41 34% 29.86 1011.1
25 11:56 Vrbl 7 10.00 Fair CLR 68 41 38% 29.88 1011.9
25 10:56 W 10 10.00 Fair CLR 64.9 42.1 43% 29.89 1012.1
25 09:56 SW 10 10.00 Fair CLR 64 41 43% 29.89 1012.2
25 08:56 Vrbl 3 10.00 Fair CLR 61 42.1 50% 29.9 1012.3
25 07:56 Calm 10.00 Fair CLR 57.9 42.1 59 48.9 56% 29.89 1012.0
25 06:56 Calm 10.00 Fair CLR 55.9 42.1 60% 29.87 1011.3
25 05:56 SW 6 10.00 Fair CLR 50 45 83% 48 29.87 1011.4
25 04:56 W 3 10.00 Fair CLR 51.1 43 74% 29.88 1011.6
25 03:56 W 7 10.00 Fair CLR 51.1 44.1 77% 29.86 1011.0
25 02:56 W 5 10.00 Fair CLR 53.1 42.1 66% 29.87 1011.2
25 01:56 W 7 10.00 Fair CLR 55.9 43 70 55.9 62% 29.87 1011.3
25 00:56 W 6 10.00 Fair CLR 57 43 60% 29.86 1011.0
24 23:56 Vrbl 3 10.00 Fair CLR 60.1 43 53% 29.85 1010.6
24 22:56 Calm 10.00 Fair CLR 61 44.1 54% 29.83 1009.9
24 21:56 NW 7 10.00 Fair CLR 64 45 50% 29.83 1009.9
24 20:56 NW 6 10.00 Fair CLR 66 46 49% 29.8 1008.7
24 19:56 NW 12 10.00 Fair CLR 70 46.9 81 70 44% 29.75 1007.1
24 18:56 NW 10 G 21 10.00 Fair CLR 75 46.9 37% 77 29.72 1006.0
24 17:56 W 14 G 22 10.00 Fair CLR 79 43 28% 78 29.68 1004.6
24 16:56 W 14 G 23 10.00 Overcast OVC100 81 45 28% 80 29.67 1004.4
24 15:56 W 13 G 24 10.00 Mostly Cloudy BKN095 80.1 46 30% 79 29.67 1004.4
24 14:56 W 18 G 26 10.00 Overcast OVC095 80.1 46.9 31% 79 29.67 1004.6
24 13:56 W 15 G 29 10.00 Mostly Cloudy BKN095 78.1 45 80.1 64.9 31% 78 29.69 1005.2
24 12:56 W 20 G 32 10.00 Partly Cloudy SCT085 78.1 41 27% 78 29.7 1005.4
24 11:56 SW 18 G 26 10.00 Partly Cloudy SCT075 77 46.9 35% 78 29.71 1005.9
24 10:56 SW 22 G 25 10.00 Partly Cloudy and Breezy SCT070 75.9 46.9 36% 78 29.74 1007.0
24 09:56 SW 16 G 24 10.00 Fair CLR 72 48.9 44% 29.76 1007.6
24 08:56 SW 12 10.00 Fair CLR 69.1 48.9 49% 29.8 1008.8
24 07:56 SW 6 10.00 Fair CLR 64.9 48 64.9 52 54% 29.81 1009.4
24 06:56 SW 6 10.00 Fair CLR 62.1 48.9 62% 29.82 1009.6
24 05:56 Calm 10.00 Fair CLR 55.9 50 81% 29.81 1009.2
Date Time (edt) Wind (mph) Vis. (mi.) Weather Sky Cond. Air Dwpt Max. Min. Relative Humidity Wind Chill (°F) Heat Index (°F) altimeter (in) sea level (mb) 1 hr 3 hr 6 hr
6 hour
Temperature (ºF) Pressure Precipitation (in)